When you browse on this site, cookies collect data to enhance your experience and personalize the content and advertising you see.
Visit our Privacy Policy to learn more. By continuing to use the site, you agree to this use of cookies and data.
  • In Czech Republic
  • List of Countries
  • For 7 days
  • Water Temperature
  • Weather Map
  • Weather Widgets
  • user-avatar
    Login

    Hourly Weather Wiesbaden

    Today, 26 January, Sunday

    Time Temperature Precipitation Wind Pressure Humidity
    00:00 0°C° 0 mm 0 mps 751 mmHg 89%
    01:00 0°C° 0 mm 0 mps 751 mmHg 90%
    02:00 0°C° 0 mm 0 mps 751 mmHg 90%
    03:00 0°C° 0 mm 0 mps 750 mmHg 91%
    04:00 0°C° 0 mm 0 mps 750 mmHg 91%
    05:00 0°C° 0 mm 0 mps 750 mmHg 91%
    06:00 +1°C° 0 mm 1 mps 750 mmHg 92%
    07:00 +1°C° 0 mm 1 mps 750 mmHg 92%
    08:00 +2°C° 0 mm 1 mps 750 mmHg 90%
    09:00 +2°C° 0 mm 1 mps 750 mmHg 88%
    10:00 +3°C° 0 mm 1 mps 751 mmHg 87%
    11:00 +4°C° 0 mm 1 mps 750 mmHg 83%
    12:00 +5°C° 0 mm 1 mps 750 mmHg 80%
    13:00 +6°C° 0 mm 1 mps 749 mmHg 77%
    14:00 +5°C° 0 mm 1 mps 749 mmHg 79%
    15:00 +5°C° 0 mm 1 mps 749 mmHg 81%
    16:00 +5°C° 0 mm 1 mps 749 mmHg 83%
    17:00 +4°C° 0 mm 1 mps 749 mmHg 86%
    18:00 +4°C° 0 mm 1 mps 749 mmHg 88%
    19:00 +3°C° 0 mm 1 mps 748 mmHg 91%
    20:00 +3°C° 0 mm 1 mps 748 mmHg 92%
    21:00 +3°C° 0 mm 1 mps 748 mmHg 93%
    22:00 +3°C° 0 mm 1 mps 749 mmHg 95%
    23:00 +3°C° 0 mm 1 mps 748 mmHg 95%

    Tomorrow, 27 January, Monday

    Time Temperature Precipitation Wind Pressure Humidity
    00:00 +3°C° 0 mm 1 mps 748 mmHg 96%
    01:00 +3°C° 0 mm 1 mps 748 mmHg 97%
    02:00 +2°C° 0 mm 2 mps 748 mmHg 97%
    03:00 +3°C° 0 mm 2 mps 747 mmHg 97%
    04:00 +3°C° 0 mm 2 mps 747 mmHg 97%
    05:00 +3°C° 0.1 mm 2 mps 746 mmHg 97%
    06:00 +4°C° 0.1 mm 2 mps 746 mmHg 97%
    07:00 +4°C° 0.1 mm 2 mps 746 mmHg 96%
    08:00 +3°C° 0 mm 3 mps 746 mmHg 95%
    09:00 +4°C° 0 mm 3 mps 745 mmHg 94%
    10:00 +4°C° 0 mm 3 mps 745 mmHg 93%
    11:00 +5°C° 0 mm 3 mps 745 mmHg 90%
    12:00 +5°C° 0 mm 4 mps 744 mmHg 88%
    13:00 +6°C° 0 mm 4 mps 743 mmHg 85%
    14:00 +5°C° 0.3 mm 4 mps 743 mmHg 87%
    15:00 +5°C° 0.3 mm 3 mps 742 mmHg 90%
    16:00 +5°C° 0.3 mm 3 mps 742 mmHg 92%
    17:00 +5°C° 0.4 mm 4 mps 741 mmHg 92%
    18:00 +5°C° 0.4 mm 4 mps 741 mmHg 91%
    19:00 +5°C° 0.4 mm 4 mps 740 mmHg 91%
    20:00 +5°C° 0.1 mm 4 mps 740 mmHg 91%
    21:00 +5°C° 0.1 mm 3 mps 739 mmHg 92%
    22:00 +5°C° 0.1 mm 3 mps 739 mmHg 92%
    23:00 +5°C° 0.3 mm 3 mps 738 mmHg 93%

    Day after tomorrow, 28 January, Tuesday

    Time Temperature Precipitation Wind Pressure Humidity
    00:00 +5°C° 0.3 mm 4 mps 737 mmHg 93%
    01:00 +5°C° 0.3 mm 4 mps 735 mmHg 94%
    02:00 +5°C° 0.9 mm 4 mps 735 mmHg 92%
    03:00 +6°C° 0.9 mm 5 mps 734 mmHg 91%
    04:00 +6°C° 0.9 mm 5 mps 733 mmHg 90%
    05:00 +5°C° 0.2 mm 5 mps 733 mmHg 87%
    06:00 +5°C° 0.2 mm 4 mps 733 mmHg 84%
    07:00 +5°C° 0.2 mm 4 mps 733 mmHg 81%
    08:00 +5°C° 0.2 mm 4 mps 733 mmHg 82%
    09:00 +5°C° 0.2 mm 5 mps 733 mmHg 84%
    10:00 +5°C° 0.2 mm 5 mps 733 mmHg 85%
    11:00 +3°C° 0.3 mm 6 mps 733 mmHg 80%
    12:00 +3°C° 0.3 mm 7 mps 734 mmHg 76%
    13:00 +2°C° 0.3 mm 9 mps 734 mmHg 71%
    14:00 +2°C° 0.1 mm 8 mps 735 mmHg 66%
    15:00 +3°C° 0.1 mm 7 mps 736 mmHg 61%
    16:00 +3°C° 0.1 mm 7 mps 737 mmHg 57%
    17:00 +2°C° 0.1 mm 6 mps 737 mmHg 64%
    18:00 +1°C° 0.1 mm 6 mps 737 mmHg 71%
    19:00 +1°C° 0.1 mm 6 mps 737 mmHg 79%
    20:00 +1°C° 0.7 mm 6 mps 737 mmHg 82%
    21:00 +1°C° 0.7 mm 6 mps 737 mmHg 86%
    22:00 0°C° 0.7 mm 7 mps 737 mmHg 89%
    23:00 +1°C° 0.4 mm 6 mps 737 mmHg 87%

    29 January, Wednesday

    Time Temperature Precipitation Wind Pressure Humidity
    00:00 +1°C° 0.4 mm 5 mps 736 mmHg 85%
    01:00 +1°C° 0.4 mm 5 mps 736 mmHg 83%
    02:00 +1°C° 0 mm 5 mps 737 mmHg 83%
    03:00 0°C° 0 mm 5 mps 737 mmHg 82%
    04:00 0°C° 0 mm 5 mps 737 mmHg 82%
    05:00 0°C° 0 mm 5 mps 737 mmHg 80%
    06:00 -1°C° 0 mm 5 mps 738 mmHg 79%
    07:00 -1°C° 0 mm 5 mps 739 mmHg 77%
    08:00 -1°C° 0 mm 5 mps 740 mmHg 76%
    09:00 0°C° 0 mm 5 mps 740 mmHg 75%
    10:00 -1°C° 0 mm 6 mps 741 mmHg 73%
    11:00 -1°C° 0 mm 6 mps 742 mmHg 72%
    12:00 +1°C° 0 mm 6 mps 742 mmHg 71%
    13:00 +1°C° 0 mm 6 mps 742 mmHg 69%
    14:00 +1°C° 0 mm 5 mps 743 mmHg 69%
    15:00 +1°C° 0 mm 5 mps 743 mmHg 69%
    16:00 +1°C° 0 mm 5 mps 744 mmHg 69%
    17:00 +1°C° 0 mm 4 mps 744 mmHg 72%
    18:00 0°C° 0 mm 4 mps 745 mmHg 76%
    19:00 0°C° 0 mm 4 mps 745 mmHg 80%
    20:00 +1°C° 0 mm 3 mps 745 mmHg 82%
    21:00 0°C° 0 mm 3 mps 746 mmHg 84%
    22:00 0°C° 0 mm 3 mps 746 mmHg 86%
    23:00 0°C° 0 mm 3 mps 747 mmHg 87%

    30 January, Thursday

    Time Temperature Precipitation Wind Pressure Humidity
    00:00 0°C° 0 mm 3 mps 747 mmHg 87%
    01:00 0°C° 0 mm 3 mps 748 mmHg 88%
    02:00 0°C° 0 mm 3 mps 748 mmHg 88%
    03:00 -1°C° 0 mm 3 mps 748 mmHg 88%
    04:00 -1°C° 0 mm 3 mps 748 mmHg 89%
    05:00 -1°C° 0 mm 3 mps 749 mmHg 89%
    06:00 -1°C° 0 mm 2 mps 749 mmHg 90%
    07:00 -1°C° 0 mm 2 mps 749 mmHg 91%
    08:00 +1°C° 0 mm 2 mps 749 mmHg 89%
    09:00 +1°C° 0 mm 2 mps 750 mmHg 86%
    10:00 +2°C° 0 mm 2 mps 750 mmHg 84%
    11:00 +3°C° 0 mm 2 mps 750 mmHg 81%
    12:00 +4°C° 0 mm 2 mps 750 mmHg 78%
    13:00 +5°C° 0 mm 2 mps 750 mmHg 74%
    14:00 +5°C° 0 mm 2 mps 749 mmHg 76%
    15:00 +5°C° 0 mm 1 mps 749 mmHg 78%
    16:00 +5°C° 0 mm 1 mps 748 mmHg 80%
    17:00 +4°C° 0 mm 1 mps 748 mmHg 83%
    18:00 +4°C° 0 mm 1 mps 748 mmHg 86%
    19:00 +3°C° 0 mm 1 mps 748 mmHg 89%
    20:00 +3°C° 0 mm 1 mps 748 mmHg 89%
    21:00 +3°C° 0 mm 1 mps 748 mmHg 90%
    22:00 +2°C° 0 mm 1 mps 748 mmHg 90%
    23:00 +2°C° 0 mm 1 mps 748 mmHg 90%

    31 January, Friday

    Time Temperature Precipitation Wind Pressure Humidity
    00:00 +2°C° 0 mm 1 mps 748 mmHg 91%
    01:00 +2°C° 0 mm 1 mps 747 mmHg 91%
    02:00 +2°C° 0 mm 1 mps 747 mmHg 91%
    03:00 +1°C° 0 mm 1 mps 747 mmHg 92%
    04:00 +1°C° 0 mm 1 mps 747 mmHg 92%
    05:00 +2°C° 0 mm 1 mps 746 mmHg 90%
    06:00 +2°C° 0 mm 1 mps 746 mmHg 88%
    07:00 +2°C° 0 mm 2 mps 746 mmHg 86%
    08:00 +2°C° 0 mm 2 mps 747 mmHg 85%
    09:00 +3°C° 0 mm 2 mps 747 mmHg 84%
    10:00 +3°C° 0 mm 2 mps 747 mmHg 83%
    11:00 +4°C° 0 mm 2 mps 747 mmHg 84%
    12:00 +4°C° 0 mm 2 mps 747 mmHg 85%
    13:00 +5°C° 0 mm 2 mps 747 mmHg 86%
    14:00 +5°C° 0 mm 2 mps 747 mmHg 89%
    15:00 +6°C° 0 mm 2 mps 747 mmHg 91%
    16:00 +6°C° 0 mm 2 mps 747 mmHg 94%
    17:00 +6°C° 0 mm 2 mps 747 mmHg 95%
    18:00 +6°C° 0 mm 2 mps 747 mmHg 95%
    19:00 +6°C° 0 mm 2 mps 747 mmHg 96%
    20:00 +7°C° 0 mm 2 mps 747 mmHg 96%
    21:00 +7°C° 0 mm 2 mps 747 mmHg 96%
    22:00 +7°C° 0 mm 2 mps 747 mmHg 96%
    23:00 +7°C° 0 mm 2 mps 747 mmHg 96%
    Show more